Theta_e
312 311 306 309 309 311 311 307 309 312 313 313 314 315 315 316 316 318 318 314 316 314 318 319 320 320 319 319 320 320 313 314 320 319 317 317 316 319 319 319 318 317 317 317 317
311 311 307 307 309 310 312 308 310 312 312 313 313 314 314 315 317 318 313 310 313 316 316 316 317 317 320 318 320 316 311 316 317 315 315 316 317 318 318 318 317 316 316 317 316
311 310 309 307 309 310 312 311 310 312 312 313 313 314 313 313 317 320 312 311 315 315 315 316 316 317 319 319 319 316 314 316 317 317 318 317 317 318 317 316 317 316 316 316 317
311 310 307 307 309 310 310 312 310 312 312 312 312 313 311 312 318 316 311 314 314 315 315 315 315 316 315 316 319 316 316 317 317 318 317 316 317 317 317 317 317 317 317 317 317
311 311 310 307 308 309 309 310 311 311 312 312 311 311 311 316 319 319 311 315 315 315 316 315 315 314 313 314 316 316 316 317 318 317 318 317 316 316 317 317 317 317 317 318 317
311 311 311 310 308 308 309 310 311 311 311 311 311 311 312 316 315 314 312 315 315 315 315 315 315 315 314 314 314 316 316 316 316 316 317 316 316 317 317 317 317 318 318 318 318
312 311 311 311 310 308 310 309 311 311 311 311 311 311 311 316 314 314 314 315 315 315 315 316 315 315 315 312 316 316 315 312 314 315 314 317 315 315 317 317 318 319 319 318 318
312 312 311 311 311 310 310 310 311 311 311 311 310 311 312 318 319 314 314 315 315 316 316 315 315 314 314 315 315 314 312 312 312 312 314 315 312 314 317 317 319 319 318 319 319
310 312 312 311 311 312 309 313 313 311 311 310 310 314 315 318 316 315 314 315 315 315 315 316 316 314 315 312 310 311 311 311 313 313 314 314 313 315 318 318 318 318 319 320 320
304 307 312 312 311 313 310 312 317 316 311 310 311 312 313 317 318 316 314 315 315 315 316 316 316 312 309 309 311 313 312 314 316 316 315 314 313 313 317 317 317 319 320 320 320
303 304 306 312 312 315 315 315 315 317 315 315 317 314 312 317 316 315 315 315 315 315 313 315 312 312 313 312 312 315 315 314 314 315 317 313 313 313 316 317 318 319 319 320 320
302 303 304 307 312 316 316 316 315 315 313 315 315 316 315 317 317 316 315 314 315 313 313 313 313 314 315 314 315 316 315 314 314 316 317 316 315 313 314 316 319 318 319 320 319
303 303 304 306 312 317 315 317 316 316 315 316 316 316 316 316 318 317 315 315 315 314 313 313 315 316 317 316 317 315 314 314 315 316 316 315 315 315 315 317 318 319 319 320 320
302 303 303 305 312 312 315 317 315 316 314 317 318 318 317 316 317 318 316 316 315 315 314 312 313 315 314 317 315 315 315 316 317 315 316 314 314 314 314 315 315 318 318 320 320
303 303 304 304 305 310 316 317 315 316 315 320 318 318 317 318 318 317 316 317 315 315 314 313 312 314 315 316 315 314 315 315 316 314 314 314 313 312 315 317 315 315 318 320 320
303 303 304 305 305 313 315 316 315 317 320 322 318 317 315 316 317 317 317 316 315 314 313 311 313 314 315 316 315 316 314 314 313 311 313 313 313 314 318 318 316 316 319 319 318
303 304 309 313 315 317 316 316 311 316 317 320 318 316 315 316 316 317 317 315 313 314 313 314 314 313 316 315 314 312 312 312 319 318 316 318 316 316 318 319 316 317 317 319 319
303 306 314 317 317 317 317 312 315 315 317 317 316 316 316 317 316 317 317 315 313 313 312 314 315 316 315 314 313 312 312 315 323 321 322 319 322 318 319 317 317 318 319 319 319
302 306 314 311 316 317 316 313 313 316 316 315 315 316 316 316 316 316 315 316 315 312 313 314 315 316 317 315 314 314 313 314 318 319 317 318 318 321 320 318 318 319 320 320 319
300 302 311 306 312 314 313 314 314 315 315 315 315 315 315 314 315 315 316 317 315 315 314 314 315 317 318 316 316 315 316 320 315 322 321 318 317 320 321 320 319 318 319 320 319
300 301 306 305 307 309 311 312 314 314 314 311 311 312 314 315 316 315 316 316 317 317 314 315 314 316 317 315 315 314 314 316 317 316 320 318 318 319 319 318 317 316 319 319 319
299 299 303 303 305 305 304 308 310 310 311 311 312 312 313 310 316 317 317 317 318 317 316 313 313 315 316 316 315 314 313 314 316 318 316 315 316 317 317 316 317 318 319 320 318
298 301 302 302 301 301 304 307 308 309 307 307 308 307 306 308 313 316 317 317 317 316 316 313 312 310 314 314 317 317 315 314 314 313 316 317 317 318 316 315 317 317 319 318 317
298 299 302 302 304 304 303 305 307 306 306 305 305 305 306 306 310 314 315 315 315 316 319 319 311 312 316 315 315 319 319 316 316 315 317 319 318 318 318 317 317 318 317 317 315
299 301 303 300 302 302 302 303 304 304 305 304 304 304 304 304 304 305 314 314 313 315 313 311 314 314 315 315 319 319 319 317 318 317 318 319 318 318 319 319 319 318 317 316 315
299 301 300 299 301 301 302 302 303 303 304 304 303 304 303 303 305 309 313 313 313 313 312 312 316 315 317 317 320 319 317 316 316 316 317 319 319 316 316 317 317 317 316 315 315
299 298 298 299 299 300 300 301 302 302 302 302 302 303 303 304 306 307 307 310 311 311 310 311 315 313 317 317 318 319 316 316 315 314 315 317 316 316 316 316 316 316 316 315 314
Wind_Speed
31 25 16 14 14 15 14 10 3 4 5 5 6 6 5 3 1 3 4 5 6 2 3 5 6 3 3 3 5 3 4 0 1 4 2 2 5 9 5 8 13 15 23 16 11
32 28 20 15 14 15 14 11 3 4 4 5 4 3 1 2 3 5 5 1 7 3 3 3 2 7 3 3 3 4 4 5 4 6 2 4 7 5 3 9 13 19 16 7 9
31 31 23 17 14 14 13 12 4 2 4 5 4 2 3 8 7 3 5 8 6 3 2 6 9 6 6 8 4 5 5 5 3 12 7 3 4 2 3 0 7 16 14 9 10
29 30 26 20 15 14 13 11 6 2 4 5 5 5 9 9 2 1 5 11 4 4 8 9 10 5 1 2 9 5 6 5 10 10 6 3 5 1 1 4 14 12 10 11 7
25 26 27 22 16 15 14 11 7 2 5 6 6 7 8 5 7 4 10 6 5 8 11 9 8 6 1 5 4 4 1 1 7 12 10 9 6 5 8 3 14 12 8 7 10
23 24 24 24 19 16 16 12 6 3 5 6 7 7 7 4 3 1 7 4 2 5 7 11 6 9 2 4 2 4 3 1 3 3 4 9 4 3 7 6 15 12 11 11 13
23 22 22 22 21 18 16 11 4 2 4 5 5 7 11 11 5 2 3 3 1 6 4 9 9 7 9 7 12 4 4 5 7 8 5 9 3 7 18 13 15 15 12 19 15
23 22 21 20 20 19 14 9 2 3 4 5 6 7 9 3 10 10 4 7 7 4 4 9 10 9 3 6 8 4 4 2 8 7 7 11 7 8 8 20 19 17 22 22 18
24 23 21 20 19 18 11 7 5 3 4 5 6 5 12 5 16 13 10 8 8 12 7 8 7 3 3 3 5 4 3 6 9 6 5 5 7 10 16 17 16 16 26 24 20
25 23 22 20 19 17 9 8 9 6 5 8 11 8 14 8 14 14 10 10 7 3 6 5 4 1 4 4 5 5 4 3 2 1 3 4 6 7 18 18 15 17 28 27 23
27 26 22 18 16 11 11 9 12 2 4 12 13 15 16 4 15 17 11 8 5 5 3 7 3 7 12 9 6 4 1 2 4 5 2 6 7 9 20 13 11 13 29 30 25
28 28 25 18 12 8 12 12 8 13 14 20 26 32 30 23 9 12 9 9 6 6 2 4 7 14 9 7 8 4 2 4 6 3 2 5 11 10 9 10 17 22 33 30 26
28 29 28 20 8 5 8 19 10 16 7 20 18 23 33 26 20 19 16 17 5 3 6 7 8 6 7 7 6 3 4 4 7 3 3 5 10 6 6 8 16 23 26 32 35
28 27 27 24 3 12 3 12 9 15 4 7 3 4 13 15 7 21 16 13 5 5 5 7 9 6 6 7 6 4 4 1 4 4 3 4 6 6 8 14 8 19 27 38 32
28 28 27 21 18 10 12 8 9 7 3 4 1 2 14 14 5 3 18 12 6 4 3 8 11 6 6 6 7 6 6 4 2 1 2 3 2 8 5 7 10 10 28 34 28
29 29 27 20 16 6 11 10 8 5 5 4 3 2 6 18 4 8 5 6 4 3 4 8 13 4 5 1 1 4 5 7 5 3 2 6 8 6 3 5 3 7 27 28 25
30 31 19 15 14 6 7 6 5 3 5 2 9 8 8 3 6 7 7 6 6 2 4 3 4 5 7 5 0 6 6 3 4 2 6 3 4 9 11 8 9 14 28 26 17
31 24 14 14 13 2 10 5 3 4 6 6 11 8 3 5 5 6 1 5 6 4 3 4 7 5 4 9 11 7 9 6 7 3 4 6 6 5 6 9 24 30 23 16 12
32 20 12 17 13 8 3 3 6 4 4 11 15 6 3 11 3 5 6 10 10 13 10 7 8 7 2 4 10 4 5 8 3 1 1 4 5 4 2 6 11 16 15 15 10
32 27 2 21 9 6 4 5 4 9 15 14 7 6 11 15 9 6 4 5 4 8 17 8 11 5 4 6 1 5 5 4 2 3 5 5 5 5 5 4 4 6 12 16 14
23 14 4 20 12 3 3 6 5 19 18 5 13 12 6 6 9 6 7 13 11 3 6 4 5 6 6 6 9 2 2 3 4 5 5 1 6 4 7 9 9 9 12 15 18
14 4 20 24 6 2 1 4 15 17 14 7 4 6 5 11 6 7 9 5 24 14 6 6 5 5 11 4 9 8 9 7 5 5 4 4 6 4 8 8 7 8 12 11 13
17 9 8 22 2 3 7 9 8 9 8 6 4 5 3 3 7 3 9 13 21 11 5 4 2 1 8 6 3 5 6 6 4 4 9 5 6 2 6 5 13 9 7 14 15
9 4 5 13 6 3 6 5 5 15 12 10 9 8 4 8 5 8 15 10 24 20 25 17 7 9 13 9 5 4 7 14 12 5 9 16 10 6 9 10 17 11 12 15 13
4 4 5 4 10 14 12 6 14 11 7 13 6 8 9 8 13 13 6 13 13 11 15 7 7 8 9 10 8 7 6 7 10 15 10 12 17 13 16 18 28 13 15 14 10
6 6 8 12 18 11 4 5 17 16 15 14 11 13 10 7 8 15 8 4 4 5 7 6 6 7 18 14 12 16 7 9 14 11 12 13 22 8 21 19 12 16 12 10 7
7 16 13 8 6 5 6 14 17 18 15 20 17 12 12 12 16 28 29 24 11 5 4 3 4 6 12 15 12 10 21 19 14 16 10 15 12 5 4 8 15 14 14 11 8
Wind_Direction
20 15 11 8 8 7 5 9 40 140 142 141 131 118 119 135 148 300 268 292 278 203 121 178 161 149 261 275 235 227 60 246 241 91 151 94 98 93 83 97 84 105 104 101 93
18 18 13 7 6 7 9 10 40 153 171 181 169 137 75 329 263 272 332 282 156 121 77 25 357 327 256 249 243 109 110 220 195 148 123 64 82 120 98 114 104 102 102 95 74
17 17 16 10 4 4 5 9 13 178 192 201 187 195 320 329 319 219 8 129 136 121 20 335 334 334 230 254 239 162 178 184 174 121 110 68 87 97 132 31 172 129 107 75 81
15 16 15 11 6 1 360 358 360 239 215 216 225 254 317 323 241 10 123 116 108 8 345 357 345 317 258 265 257 161 197 174 163 143 134 137 135 317 207 252 157 135 111 89 95
11 13 13 11 3 356 350 343 340 261 227 232 251 274 322 300 281 271 145 117 60 14 15 354 25 6 11 313 333 150 174 220 180 166 162 158 170 209 275 181 148 130 104 117 146
5 7 9 9 2 354 346 329 311 278 228 238 266 287 305 290 111 67 181 161 106 3 5 32 3 338 293 310 74 319 153 272 273 232 210 159 215 179 230 181 151 150 147 159 158
358 359 2 3 2 353 351 346 282 292 250 242 260 286 293 264 221 223 153 130 19 290 327 356 345 332 342 331 346 357 358 350 261 241 209 160 297 221 252 195 171 165 169 159 171
351 352 353 355 356 355 349 357 323 257 267 276 282 297 271 197 209 220 235 204 241 284 347 320 323 306 283 320 348 5 53 34 277 177 222 155 250 253 271 178 181 191 164 163 165
345 344 347 347 348 350 344 2 5 293 250 258 302 317 271 255 209 222 228 254 287 234 256 295 290 283 306 72 6 349 231 206 308 216 138 157 235 241 172 187 209 201 167 164 164
345 341 340 344 343 346 351 332 331 297 244 261 267 298 255 231 219 227 207 236 260 267 297 229 219 0 15 89 213 213 223 221 253 50 119 216 250 274 218 217 226 206 172 170 175
349 344 338 340 341 357 17 21 9 4 277 255 255 235 268 166 192 188 197 212 246 232 220 274 119 225 232 208 212 237 198 259 250 263 223 214 248 255 255 244 228 204 183 173 177
351 347 343 340 337 335 357 360 354 317 296 276 259 250 259 255 263 243 192 198 192 231 305 341 234 241 236 216 200 191 218 260 292 230 170 289 283 240 216 226 236 229 187 180 170
352 346 344 345 331 332 22 16 3 336 293 301 259 247 235 243 239 232 197 198 186 222 254 204 249 239 218 209 198 219 194 222 231 319 354 335 287 271 268 247 253 240 218 205 183
352 346 342 342 357 333 356 350 360 344 32 283 242 280 189 216 269 233 209 197 202 209 258 251 286 279 268 220 170 228 219 93 44 47 233 77 283 273 279 282 254 251 213 190 176
352 348 337 334 325 333 339 349 348 334 352 266 254 159 167 169 161 171 212 178 173 230 75 253 311 349 332 225 175 225 115 111 113 48 346 188 295 274 264 273 251 201 175 172 171
352 349 333 332 329 348 341 351 335 47 262 330 46 226 121 206 175 129 127 158 162 177 204 235 266 238 233 49 94 126 66 35 50 101 303 226 179 271 215 215 206 150 162 162 153
351 352 345 20 13 19 2 8 36 155 318 102 25 350 324 236 191 157 169 171 178 147 259 292 228 241 185 204 154 85 65 349 328 349 232 275 170 242 304 303 177 158 150 147 148
348 2 20 29 4 1 3 51 194 264 282 357 357 324 218 338 335 336 249 199 263 179 175 197 309 185 179 190 196 178 149 156 228 217 269 300 247 279 332 55 103 127 135 139 141
344 4 41 21 24 359 15 79 210 239 350 353 336 332 354 338 324 311 230 230 201 186 186 194 247 233 173 181 160 183 157 178 100 297 20 247 295 319 324 66 101 126 142 162 181
346 341 321 340 332 340 84 219 243 317 323 326 318 291 308 318 310 319 290 284 276 185 214 228 259 214 167 104 69 142 166 81 7 216 248 277 256 227 195 180 160 170 183 198 207
357 336 325 335 327 300 184 230 298 293 296 315 293 287 315 4 331 302 256 295 279 226 156 161 165 275 131 182 169 143 177 90 129 149 182 244 267 225 195 178 181 204 220 217 199
3 339 337 350 348 341 235 320 329 316 342 2 353 2 24 337 293 299 282 273 326 291 232 186 159 216 216 224 181 180 182 150 140 231 221 166 260 258 180 186 180 237 284 269 185
336 296 348 335 318 341 321 339 312 12 351 350 308 16 334 291 314 318 304 326 330 342 296 201 204 43 326 337 318 199 186 174 128 103 212 181 252 177 172 238 269 258 257 174 174
331 330 318 319 2 26 2 293 333 329 314 341 288 305 353 306 232 285 306 308 343 330 318 259 186 176 229 227 184 200 199 202 190 183 219 229 240 256 265 271 290 298 167 158 176
313 278 14 297 324 330 315 290 297 305 261 331 308 326 313 295 305 286 269 311 306 327 344 21 226 193 212 193 213 200 198 205 202 226 200 228 231 223 241 252 257 235 163 164 183
310 341 333 296 289 265 247 258 284 297 295 294 291 319 313 278 264 297 312 285 250 334 351 4 303 260 236 222 212 243 247 240 242 242 260 248 260 232 246 257 189 165 170 180 212
289 295 318 258 255 295 257 270 279 299 290 304 307 298 295 291 307 299 278 262 234 199 284 305 291 332 255 234 228 241 237 242 251 252 233 245 246 179 134 136 157 169 181 192 223